Regional Weather Roundup
Issued by NWS Newport/Morehead, NC

Home | Current Version | Previous Version | Text Only | Print | Product List | Glossary On
Versions: 1 2 3 4 5 6 7 8 9 10 11 12 13 14 15 16 17 18 19 20 21 22 23 24 25 26 27 28 29 30 31 32 33 34 35 36 37 38 39 40 41 42 43 44 45 46 47 48 49 50
000
ASUS42 KMHX 012225
RWRMHX
WEATHER ROUNDUP FOR EASTERN NORTH CAROLINA
NATIONAL WEATHER SERVICE NEWPORT/MOREHEAD CITY NC
500 PM EST MON MAR 01 2021

NOTE: "FAIR" INDICATES FEW OR NO CLOUDS BELOW 12,000 FEET
WITH NO SIGNIFICANT WEATHER AND/OR OBSTRUCTIONS TO VISIBILITY

NCZ015>017-031-032-045>047-102-103-012300-
NORTH COAST

CITY           SKY/WX    TMP DP  RH WIND       PRES   REMARKS
EDENTON        PTSUNNY   62  58  88 W5        29.88R
ELIZABETH CITY PTSUNNY   62  54  74 W10       29.83F
KITTY HAWK     MOCLDY    59  52  78 W10G18    29.83S
MANTEO         PTSUNNY   60  53  75 NW8       29.85S

$$

NCZ045>047-081-094-103-104-012300-
CENTRAL COAST

CITY           SKY/WX    TMP DP  RH WIND       PRES   REMARKS
FRISCO         CLOUDY    59  55  87 W8        29.88R

$$

NCZ095-097-098-100-101-012300-
SOUTHERN COAST

CITY           SKY/WX    TMP DP  RH WIND       PRES   REMARKS
PINEY ISLAND   MOCLDY    62  56  80 W7        29.89R
BEAUFORT       CLOUDY    62  56  80 W7        29.89R
CAPE CARTERET  PTSUNNY   63  56  78 W5        29.90R
JACKSONVILLE   PTSUNNY   65  54  67 NW7       29.89R
WILMINGTON     PTSUNNY   65  59  81 W5        29.91R


$$

NCZ011>013-027>030-043-044-078>080-089-090>093-098-012300-
COASTAL PLAIN

CITY           SKY/WX    TMP DP  RH WIND       PRES   REMARKS
AHOSKIE        PTSUNNY   58  42  54 W7        29.90R
ROCKY MOUNT    CLOUDY    59  44  57 NW17G23   29.92R
GREENVILLE     PTSUNNY   63  55  77 CALM      29.92R
WASHINGTON     PTSUNNY   63  54  74 W6        29.89R
GOLDSBORO      PTSUNNY   64  55  73 W9        29.88S
KINSTON        SUNNY     63  57  82 W7        29.90S
NEW BERN       PTSUNNY   64  56  75 W5        29.90R
HAVELOCK       MOSUNNY   64  57  78 W8        29.90R
KENANSVILLE    CLOUDY    63  57  82 W6        29.92R
RICHLANDS      PTSUNNY   63  58  83 W3        29.90S
CLINTON        PTSUNNY   62  60  94 W7        29.94R
ELIZABETHTOWN  CLOUDY    62  59  89 W6        29.95R
WHITEVILLE     CLOUDY    66  59  78 W3        29.96R

$$

AMZ130-135-150-152-154-156-158-170-250-252-270-ANZ085-086-088-633-658-670-012300-
MARINE OBSERVATIONS

STATION/POSITION TIME  TEMP    WIND        PRES    WAVE   SWELL
                       AIR SEA DIR/SP/G            HT/PER HT/PER
                 (UTC) (F)     (DEG/KT/KT) (MB)    (FT/S) (FT/S)
64 E VA BEACH    2210   50 51  330/ 12/ 16 1010.0
64 E VA BEACH    2130   51 51                N/A     5/ 8
DUCK PIER        2148   59     260/ 12/ 14 1009.9
2 E DUCK         2156      44                N/A     2/ 9
10 NE DUCK       NOT AVBL
OREGON INLET     2142   60 57  260/  9/ 13 1010.4
13E OREGON INLT  2156      47                N/A     4/ 8   3/ 8
HATTERAS CG      2148   58 57  290/ 12/ 16 1011.9
DIAMOND BUOY     2210   62 60  260/ 12/ 16   N/A
CAPE LOOKOUT     2200   58     320/  9/ 12 1013.1
BEAUFORT LAB     2148   61 59  300/  6/  8 1013.2
30 SE NEW RVR IN 2208   62 61  260/  4/  8 1012.4
30 SE NEW RVR IN 2156      60                N/A     5/ 7
27 SE WRIGHTSVLE 2208   59 58                N/A
5 SE WRIGHTSVLE  2208   54 56  230/  4/  8 1013.2
27 SE WRIGHTSVL  2208   59 58                N/A
FRYING PAN BUOY  2210   62 59  160/  6/  8 1011.9
225 S CAPE HAT   NOT AVBL
41 SE CHARLESTON NOT AVBL

$$




USA.gov is the U.S. government's official web portal to all federal, state and local government web resources and services.